[ hide orbit diagram ]
For accurate long-term ephemerides, please instead use our Horizons system.This orbit viewer was implemented using two-body methods, and hence should not be used for determining accurate long-term trajectories (over several years or decades) or planetary encounter circumstances.
Orbital Elements at Epoch 2459000.5 (2020-May-31.0) TDB
Reference: JPL 12 (heliocentric ecliptic J2000)
Element | Value | Uncertainty (1-sigma) | Units |
e | .2245182217028917 | 6.8728e-08 | |
a | 3.088641086969246 | 6.1902e-08 | au |
q | 2.395184882644425 | 2.2113e-07 | au |
i | 17.7562174328541 | 1.3784e-05 | deg |
node | 102.3605551356354 | 2.2732e-05 | deg |
peri | 95.10285492033655 | 4.8486e-05 | deg |
M | 229.6487186253083 | 3.3729e-05 | deg |
tp | 2459718.397428020449 (2022-May-18.89742802) | 0.00018919 | TDB |
period | 1982.666156878604 5.43 | 5.9604e-05 1.632e-07 | d yr |
n | .1815736848843798 | 5.4586e-09 | deg/d |
Q | 3.782097291294069 | 7.58e-08 | au |
|
| | Orbit Determination Parameters
Additional Information
|
[ show covariance matrix ]
Physical Parameter Table
Parameter |
Symbol |
Value |
Units |
Sigma |
Reference |
Notes |
absolute magnitude |
H |
16.1 |
|
n/a |
MPO419207 |
|
|
452802 (2006 JE56) Discovered 2006-Apr-02 by LONEOS at Anderson Mesa |
Reference: | Last Updated: 2016-01-04 |
|
[ hide close-approach data ]
Close-Approach Data ...sorted by Date/Time (TDB)
|
Date/Time (TDB) |
Time Uncertainty (days_HH:MM) |
Body |
Nominal Distance (au) |
Minimum Distance (au) |
Maximum Distance (au) |
V-relative (km/s) |
V-infinity (km/s) |
JD (TDB) |
Time Uncertainty (minutes) |
Semi-major axis (km) |
Semi-minor axis (km) |
range-LOV angle (deg) |
N-sigma |
BP |
Orbit Ref. |
Reference |
Modified |
1906-Aug-14 08:03 |
00:10 |
Jupiter |
1.97054661960089 |
1.97053915422046 |
1.97055408534727 |
4.97921228266843 |
4.89212348145776 |
2417436.835703007 |
9.9617072506292 |
1421.75270283475 |
56.8853481627381 |
-75.9091689652768 |
919174.781555917 |
T |
12 |
CATAB v2.0e-lin.ifort 2019-Jul-14 07:20:11 |
2019-Jul-14 07:20 |
1915-Dec-23 22:15 |
00:18 |
Jupiter |
1.7015775326794 |
1.70157527487611 |
1.70157979058705 |
1.29761033308215 |
0.829589869529957 |
2420855.426975096 |
17.4921095501455 |
29658.479536028 |
447.961063772712 |
-56.217130642998 |
1608947.31740401 |
T |
12 |
CATAB v2.0e-lin.ifort 2019-Jul-14 07:20:11 |
2019-Jul-14 07:20 |
1976-Dec-16 12:38 |
00:04 |
Jupiter |
1.71501355622117 |
1.71501144163176 |
1.71501567083406 |
3.65957741492779 |
3.52203539223608 |
2443129.026465388 |
3.99939506202422 |
514.948954568072 |
63.711580285221 |
-84.3524825637997 |
566678.260245907 |
T |
12 |
CATAB v2.0e-lin.ifort 2019-Jul-14 07:20:11 |
2019-Jul-14 07:20 |
1986-Jan-30 07:14 |
00:03 |
Jupiter |
1.80213425212412 |
1.80213222902614 |
1.80213627522497 |
3.82374735120614 |
3.69878659246746 |
2446460.801283158 |
2.98399148933219 |
407.15137137555 |
77.9590153743469 |
-86.8064965789878 |
634030.706183551 |
T |
12 |
CATAB v2.0e-lin.ifort 2019-Jul-14 07:20:11 |
2019-Jul-14 07:20 |
2047-Jan-29 11:25 |
00:06 |
Jupiter |
1.69361478801595 |
1.693612528625 |
1.69361704740631 |
1.36786558377313 |
0.933167839473776 |
2468739.975440054 |
6.10889393370018 |
4418.59261239464 |
392.883459005803 |
-4.19336171300277 |
118730.861028395 |
T |
12 |
CATAB v2.0e-lin.ifort 2019-Jul-14 07:20:11 |
2019-Jul-14 07:20 |
2107-Sep-08 09:31 |
00:09 |
Jupiter |
1.71862991021895 |
1.71862537741122 |
1.71863444336449 |
4.11935290866222 |
3.99792112415477 |
2490875.896709851 |
9.01607876199328 |
1312.94395849235 |
62.6366544845995 |
-82.0071392872887 |
709766.247330443 |
T |
12 |
CATAB v2.0e-lin.ifort 2019-Jul-14 07:20:11 |
2019-Jul-14 07:20 |
2116-Nov-06 05:13 |
00:12 |
Jupiter |
1.7980013095926 |
1.79799728626805 |
1.79800533316356 |
3.07773402527699 |
2.92066164043714 |
2494222.717129045 |
12.2307406807824 |
1315.19094523305 |
66.5267495908807 |
89.2092286700786 |
389108.782079133 |
T |
12 |
CATAB v2.0e-lin.ifort 2019-Jul-14 07:20:11 |
2019-Jul-14 07:20 |
2177-Dec-21 22:40 |
00:19 |
Jupiter |
1.6474007832749 |
1.64739687163592 |
1.64740469529736 |
2.8098850179632 |
2.62052284295349 |
2516548.444232248 |
19.4163445126264 |
1552.32479566056 |
117.025824694083 |
70.6441356779915 |
349490.753153203 |
T |
12 |
CATAB v2.0e-lin.ifort 2019-Jul-14 07:20:11 |
2019-Jul-14 07:20 |
|
|